Date,TemperatureHighF,TemperatureAvgF,TemperatureLowF,DewpointHighF,DewpointAvgF,DewpointLowF,HumidityHigh,HumidityAvg,HumidityLow,PressureMaxIn,PressureMinIn,WindSpeedMaxMPH,WindSpeedAvgMPH,GustSpeedMaxMPH,PrecipitationSumIn
2013-3-1,19.0,9.3,5.2,9.0,4.8,1.0,89,82,65,30.03,29.47,3,0,4,0.00
2013-3-2,19.7,11.7,4.3,13.0,7.4,1.0,89,83,73,30.18,30.03,3,0,3,0.00
2013-3-3,26.3,16.3,8.0,17.0,10.6,5.0,90,79,62,30.42,30.18,1,0,3,0.00
2013-3-4,32.5,22.3,12.8,16.0,12.0,8.0,83,66,50,30.47,30.29,1,0,3,0.01
2013-3-5,34.7,25.6,19.7,16.0,10.7,8.0,65,54,43,30.28,29.93,2,0,3,0.00
2013-3-6,22.7,18.3,13.3,10.0,6.2,4.0,73,60,52,29.93,29.87,3,0,4,0.00
2013-3-7,40.8,31.5,19.4,17.0,14.5,9.0,68,51,38,29.87,29.43,11,3,15,0.00
2013-3-8,43.7,39.0,33.3,23.0,19.3,15.0,56,46,40,29.61,29.48,6,2,10,0.02
2013-3-9,37.5,29.3,20.3,25.0,20.8,13.0,91,71,58,29.99,29.61,4,1,8,0.00
2013-3-10,26.7,21.0,14.2,24.0,15.7,8.0,93,80,65,30.30,30.00,6,1,9,0.00
2013-3-11,25.4,17.0,10.5,14.0,9.3,5.0,88,72,57,30.59,30.30,10,1,11,0.00
2013-3-12,24.0,15.6,8.6,5.0,-0.6,-10.0,73,51,25,30.60,30.36,6,1,9,0.00
2013-3-13,14.6,7.5,-4.5,-4.0,-9.8,-20.0,56,45,34,30.36,30.26,27,7,32,0.00
2013-3-14,14.0,3.7,-6.4,-9.0,-14.9,-22.0,49,42,34,30.26,30.19,18,8,24,0.00
2013-3-15,21.0,10.9,5.4,-8.0,-12.4,-15.0,42,35,24,30.21,29.97,13,6,17,0.00
2013-3-16,24.4,15.5,8.7,1.0,-4.8,-11.0,52,41,35,30.20,30.02,11,4,12,0.00
2013-3-17,17.7,10.7,4.5,0.0,-2.6,-5.0,68,56,45,30.30,30.16,3,0,5,0.00
2013-3-18,18.9,9.5,0.8,0.0,-3.1,-8.0,77,58,43,30.16,30.03,7,1,8,0.00
2013-3-19,16.2,8.6,3.1,-3.0,-6.3,-10.0,66,52,38,30.16,30.06,6,1,12,0.00
2013-3-20,8.9,1.7,-7.4,-1.0,-8.4,-14.0,77,63,55,30.06,29.95,5,1,7,0.00
2013-3-21,19.1,9.2,0.8,10.0,2.3,-3.0,88,75,50,30.14,30.02,4,1,8,0.00
2013-3-22,29.9,20.4,12.5,14.0,3.7,-2.0,73,49,40,30.05,29.69,6,2,11,0.00
2013-3-23,20.2,2.5,-5.4,15.0,-6.5,-13.0,85,67,48,30.08,29.71,6,2,12,0.00
2013-3-24,13.5,4.5,-5.0,4.0,-5.4,-13.0,85,65,46,30.06,29.78,4,1,6,0.00
2013-3-25,8.2,3.4,-0.7,2.0,-1.3,-5.0,86,81,72,29.79,29.65,6,1,12,0.00
2013-3-26,4.7,-1.8,-8.4,-6.0,-10.4,-15.0,81,68,51,30.22,29.79,8,2,11,0.00
2013-3-27,9.4,-1.6,-13.6,-7.0,-11.8,-18.0,82,63,47,30.30,30.17,6,1,9,0.00
2013-3-28,30.6,18.4,2.9,9.0,0.5,-7.0,63,47,34,30.17,29.91,4,1,7,0.00
2013-3-29,42.7,33.2,25.5,17.0,12.4,8.0,49,43,33,29.91,29.85,5,1,6,0.05
2013-3-30,40.1,29.5,17.9,18.0,14.2,9.0,81,54,38,30.19,29.90,4,0,6,0.00
2013-3-31,38.7,31.8,25.6,27.0,21.5,15.0,87,66,55,30.24,30.13,2,0,6,0.00